AFR467 KCVG-EDDP

Flight info

Callsign AFR467
Flight time 8h 0m
Altitude 33000
Route HAGOL5 PLASH DCT DJB DCT DKK DCT KB90C DCT MIILS N285B NICSO/M083F350 DCT 48N050W 50N040W 52N030W 54N020W DCT DOGAL DCT BEXET/N0477F350 DCT BOYNE/N0477F370 DCT LAMSO DCT PETIK P154 SPY DCT NORTA/N0450F230 DCT ADMOS T959 KOJEC KOJEC1V
Aircraft B77L/H-SDE1E2E3FGHIJ2J3J4J5M1RWXY/LB1D1

Departure

Time 2026-05-05 11:52
Airport Cincinnati Northern Kentucky International Airport (KCVG)

Arrival

Time 2026-05-05 19:53
Airport Leipzig/Halle Airport (EDDP)
Time Latitude Longitude Altitude Speed Heading
2026-05-05 11:42 39.05369 -84.66079 884 ft 0 kts 270°
2026-05-05 11:45 39.05369 -84.66081 884 ft 2 kts 270°
2026-05-05 11:45 39.05362 -84.66155 883 ft 11 kts 242°
2026-05-05 11:46 39.05302 -84.66146 883 ft 11 kts 118°
2026-05-05 11:46 39.05298 -84.66051 883 ft 11 kts 98°
2026-05-05 11:46 39.05243 -84.65999 883 ft 11 kts 174°
2026-05-05 11:46 39.05170 -84.66010 882 ft 11 kts 186°
2026-05-05 11:47 39.05096 -84.66013 882 ft 11 kts 181°
2026-05-05 11:47 39.05022 -84.66015 881 ft 11 kts 181°
2026-05-05 11:47 39.04949 -84.66016 878 ft 11 kts 179°
2026-05-05 11:47 39.04875 -84.66015 875 ft 11 kts 180°
2026-05-05 11:48 39.04809 -84.65933 872 ft 16 kts 86°
2026-05-05 11:48 39.04811 -84.65787 874 ft 16 kts 90°
2026-05-05 11:48 39.04811 -84.65642 874 ft 16 kts 90°
2026-05-05 11:49 39.04811 -84.65488 874 ft 18 kts 90°
2026-05-05 11:49 39.04810 -84.65328 878 ft 18 kts 90°
2026-05-05 11:49 39.04810 -84.65167 882 ft 18 kts 90°
2026-05-05 11:49 39.04809 -84.65006 883 ft 18 kts 90°
2026-05-05 11:50 39.04861 -84.64880 883 ft 18 kts
2026-05-05 11:50 39.04988 -84.64881 882 ft 19 kts 360°
2026-05-05 11:50 39.05133 -84.64881 877 ft 22 kts 360°
2026-05-05 11:50 39.05296 -84.64882 874 ft 24 kts
2026-05-05 11:51 39.05462 -84.64878 873 ft 25 kts
2026-05-05 11:51 39.05582 -84.64809 873 ft 19 kts 82°
2026-05-05 11:51 39.05525 -84.64669 874 ft 19 kts 160°
2026-05-05 11:51 39.05319 -84.64668 872 ft 59 kts 180°
2026-05-05 11:52 39.04625 -84.64671 879 ft 142 kts 180°
2026-05-05 11:52 39.03384 -84.64675 962 ft 202 kts 181°
2026-05-05 11:52 39.01952 -84.64715 1836 ft 202 kts 187°
2026-05-05 11:52 39.00555 -84.64635 2915 ft 214 kts 180°
2026-05-05 11:53 38.99035 -84.64182 3194 ft 239 kts 174°
2026-05-05 11:53 38.97405 -84.63540 3727 ft 254 kts 163°
2026-05-05 11:53 38.95958 -84.62088 4292 ft 282 kts 131°
2026-05-05 11:53 38.95136 -84.59727 5063 ft 294 kts 109°
2026-05-05 11:54 38.94820 -84.58026 5598 ft 297 kts 106°
2026-05-05 11:54 38.94373 -84.55426 6400 ft 299 kts 105°
2026-05-05 11:54 38.93959 -84.51904 7303 ft 306 kts 86°
2026-05-05 11:54 38.94617 -84.49302 7939 ft 311 kts 54°
2026-05-05 11:55 38.95578 -84.47893 8411 ft 309 kts 37°
2026-05-05 11:55 38.97264 -84.46251 9000 ft 313 kts 33°
2026-05-05 11:55 38.99047 -84.44562 9711 ft 316 kts 31°
2026-05-05 11:55 39.00980 -84.43328 10253 ft 309 kts
2026-05-05 11:56 39.03135 -84.42782 10500 ft 325 kts
2026-05-05 11:56 39.05401 -84.42167 10686 ft 349 kts
2026-05-05 11:56 39.07846 -84.41518 10846 ft 364 kts
2026-05-05 11:56 39.10371 -84.41774 11071 ft 366 kts 338°
2026-05-05 11:57 39.12826 -84.42822 11462 ft 376 kts 336°
2026-05-05 11:57 39.15360 -84.43841 12193 ft 383 kts 338°
2026-05-05 11:57 39.17924 -84.44814 13094 ft 385 kts 339°
2026-05-05 11:57 39.20509 -84.45781 13943 ft 387 kts 339°
2026-05-05 11:58 39.23075 -84.46742 14658 ft 390 kts 339°
2026-05-05 11:58 39.25700 -84.47729 15290 ft 395 kts 339°
2026-05-05 11:58 39.28356 -84.48718 15964 ft 399 kts 339°
2026-05-05 11:58 39.31041 -84.49713 16667 ft 402 kts 339°
2026-05-05 11:59 39.33749 -84.50717 17311 ft 406 kts 339°
2026-05-05 11:59 39.36484 -84.51731 17966 ft 410 kts 339°
2026-05-05 11:59 39.39243 -84.52757 18579 ft 413 kts 339°
2026-05-05 11:59 39.41975 -84.53772 19256 ft 413 kts 339°
2026-05-05 12:00 39.44743 -84.54802 19981 ft 413 kts 339°
2026-05-05 12:00 39.47497 -84.55829 20769 ft 410 kts 339°
2026-05-05 12:00 39.50247 -84.56855 21460 ft 411 kts 339°
2026-05-05 12:00 39.53015 -84.57889 22054 ft 414 kts 339°
2026-05-05 12:01 39.55791 -84.58753 22500 ft 421 kts 348°
2026-05-05 12:01 39.58784 -84.58616 22905 ft 440 kts
2026-05-05 12:01 39.61729 -84.57425 23464 ft 446 kts 13°
2026-05-05 12:01 39.64665 -84.56065 23884 ft 450 kts 13°
2026-05-05 12:02 39.67628 -84.54720 24283 ft 454 kts 13°
2026-05-05 12:02 39.70633 -84.53376 24683 ft 459 kts 12°
2026-05-05 12:02 39.73669 -84.52033 25058 ft 463 kts 12°
2026-05-05 12:02 39.76741 -84.50679 25470 ft 467 kts 12°
2026-05-05 12:03 39.79806 -84.49331 25873 ft 470 kts 12°
2026-05-05 12:03 39.82910 -84.47965 26264 ft 474 kts 11°
2026-05-05 12:03 39.86050 -84.46581 26636 ft 478 kts 11°
2026-05-05 12:03 39.89226 -84.45180 27011 ft 482 kts 11°
2026-05-05 12:04 39.92411 -84.43770 27446 ft 484 kts 11°
2026-05-05 12:04 39.95576 -84.42370 27866 ft 487 kts 10°
2026-05-05 12:04 39.98784 -84.40943 28235 ft 489 kts 12°
2026-05-05 12:04 40.01890 -84.38933 28384 ft 513 kts 28°
2026-05-05 12:05 40.04527 -84.35662 28676 ft 531 kts 45°
2026-05-05 12:05 40.06814 -84.31827 28978 ft 536 kts 46°
2026-05-05 12:05 40.09101 -84.27941 29222 ft 541 kts 46°
2026-05-05 12:05 40.11395 -84.24075 29475 ft 545 kts 46°
2026-05-05 12:06 40.13748 -84.20164 29884 ft 545 kts 45°
2026-05-05 12:06 40.16109 -84.16285 30318 ft 542 kts 45°
2026-05-05 12:06 40.18469 -84.12443 30733 ft 541 kts 44°
2026-05-05 12:06 40.20833 -84.08610 31120 ft 540 kts 44°
2026-05-05 12:07 40.23200 -84.04778 31469 ft 541 kts 44°
2026-05-05 12:07 40.25531 -84.01002 31783 ft 541 kts 44°
2026-05-05 12:07 40.27900 -83.97156 32148 ft 540 kts 44°
2026-05-05 12:07 40.30262 -83.93312 32491 ft 540 kts 43°
2026-05-05 12:08 40.32617 -83.89471 32888 ft 539 kts 44°
2026-05-05 12:08 40.34974 -83.85621 32894 ft 542 kts 44°
2026-05-05 12:08 40.39662 -83.77941 32888 ft 535 kts 44°
2026-05-05 12:09 40.44283 -83.70353 32898 ft 534 kts 44°
2026-05-05 12:09 40.48921 -83.62728 32890 ft 534 kts 44°
2026-05-05 12:10 40.53534 -83.55125 32910 ft 534 kts 44°
2026-05-05 12:10 40.58190 -83.47435 32857 ft 544 kts 45°
2026-05-05 12:11 40.62946 -83.39561 32803 ft 548 kts 45°
2026-05-05 12:11 40.67632 -83.31761 32800 ft 544 kts 45°
2026-05-05 12:12 40.72324 -83.23938 32858 ft 542 kts 45°
2026-05-05 12:12 40.76991 -83.16143 32821 ft 539 kts 45°
2026-05-05 12:13 40.81599 -83.08428 32771 ft 536 kts 46°
2026-05-05 12:13 40.86224 -83.00671 32784 ft 537 kts 46°
2026-05-05 12:14 40.90824 -82.92935 32774 ft 539 kts 46°
2026-05-05 12:14 40.95462 -82.85112 32781 ft 539 kts 46°
2026-05-05 12:15 41.00075 -82.77307 32757 ft 537 kts 47°
2026-05-05 12:15 41.04678 -82.69498 32783 ft 536 kts 47°
2026-05-05 12:16 41.09237 -82.61750 32782 ft 535 kts 47°
2026-05-05 12:16 41.13812 -82.53955 32780 ft 535 kts 48°
2026-05-05 12:17 41.18388 -82.46137 32768 ft 534 kts 48°
2026-05-05 12:17 41.22920 -82.38375 32751 ft 534 kts 48°
2026-05-05 12:18 41.27478 -82.30547 32767 ft 533 kts 48°
2026-05-05 12:18 41.31993 -82.22773 32790 ft 533 kts 49°
2026-05-05 12:19 41.36426 -82.14804 32771 ft 536 kts 54°
2026-05-05 12:19 41.40073 -82.06107 32772 ft 538 kts 59°
2026-05-05 12:20 41.43580 -81.97338 32766 ft 539 kts 59°
2026-05-05 12:20 41.47137 -81.88523 32760 ft 539 kts 59°
2026-05-05 12:21 41.50711 -81.79735 32739 ft 540 kts 59°
2026-05-05 12:21 41.54295 -81.70922 32755 ft 539 kts 59°
2026-05-05 12:22 41.57863 -81.62113 32751 ft 538 kts 59°
2026-05-05 12:22 41.61388 -81.53381 32767 ft 537 kts 59°
2026-05-05 12:23 41.64929 -81.44582 32746 ft 536 kts 59°
2026-05-05 12:23 41.68469 -81.35755 32746 ft 536 kts 59°
2026-05-05 12:24 41.71966 -81.27014 32731 ft 536 kts 60°
2026-05-05 12:24 41.75479 -81.18205 32750 ft 535 kts 60°
2026-05-05 12:25 41.78987 -81.09379 32747 ft 535 kts 60°
2026-05-05 12:25 41.82460 -81.00617 32757 ft 535 kts 60°
2026-05-05 12:26 41.85953 -80.91778 32766 ft 535 kts 60°
2026-05-05 12:26 41.89424 -80.82970 32756 ft 536 kts 60°
2026-05-05 12:27 41.92904 -80.74109 32759 ft 536 kts 60°
2026-05-05 12:27 41.96390 -80.65208 32749 ft 537 kts 60°
2026-05-05 12:28 41.99840 -80.56371 32725 ft 537 kts 60°
2026-05-05 12:28 42.03310 -80.47455 32731 ft 537 kts 61°
2026-05-05 12:29 42.06763 -80.38555 32732 ft 538 kts 61°
2026-05-05 12:29 42.10218 -80.29623 32740 ft 538 kts 61°
2026-05-05 12:30 42.13674 -80.20660 32737 ft 538 kts 61°
2026-05-05 12:30 42.17096 -80.11761 32746 ft 537 kts 61°
2026-05-05 12:31 42.20534 -80.02790 32695 ft 537 kts 61°
2026-05-05 12:31 42.23961 -79.93819 32699 ft 536 kts 61°
2026-05-05 12:32 42.27349 -79.84921 32697 ft 536 kts 61°
2026-05-05 12:32 42.30751 -79.75960 32687 ft 535 kts 61°
2026-05-05 12:33 42.34149 -79.66981 32698 ft 534 kts 61°
2026-05-05 12:33 42.37509 -79.58077 32727 ft 534 kts 62°
2026-05-05 12:34 42.40877 -79.49120 32706 ft 534 kts 62°
2026-05-05 12:34 42.44241 -79.40147 32721 ft 533 kts 61°
2026-05-05 12:35 42.47578 -79.31218 32716 ft 533 kts 61°
2026-05-05 12:35 42.50951 -79.22280 32721 ft 532 kts 60°
2026-05-05 12:36 42.54431 -79.13413 32721 ft 532 kts 60°
2026-05-05 12:36 42.57901 -79.04605 32699 ft 533 kts 60°
2026-05-05 12:37 42.61377 -78.95702 32720 ft 532 kts 60°
2026-05-05 12:37 42.64837 -78.86773 32706 ft 533 kts 60°
2026-05-05 12:38 42.68258 -78.77910 32701 ft 533 kts 61°
2026-05-05 12:38 42.71705 -78.68955 32691 ft 533 kts 61°
2026-05-05 12:39 42.75119 -78.60056 32692 ft 532 kts 60°
2026-05-05 12:39 42.78536 -78.51127 32700 ft 531 kts 61°
2026-05-05 12:40 42.81930 -78.42231 32682 ft 530 kts 61°
2026-05-05 12:40 42.84768 -78.34770 32699 ft 530 kts 61°
2026-05-05 12:41 42.88146 -78.25863 32690 ft 531 kts 62°
2026-05-05 12:41 42.91539 -78.16889 32695 ft 532 kts 62°
2026-05-05 12:42 42.94935 -78.07878 32693 ft 533 kts 62°
2026-05-05 12:42 42.98305 -77.98908 32696 ft 534 kts 62°
2026-05-05 12:43 43.01705 -77.89826 32701 ft 535 kts 62°
2026-05-05 12:43 43.05071 -77.80811 32706 ft 536 kts 62°
2026-05-05 12:44 43.08460 -77.71703 32700 ft 536 kts 62°
2026-05-05 12:44 43.11842 -77.62585 32703 ft 536 kts 62°
2026-05-05 12:45 43.15197 -77.53510 32729 ft 535 kts 62°
2026-05-05 12:45 43.18553 -77.44397 32698 ft 535 kts 62°
2026-05-05 12:46 43.21884 -77.35328 32705 ft 535 kts 62°
2026-05-05 12:46 43.25223 -77.26207 32710 ft 534 kts 62°
2026-05-05 12:47 43.28544 -77.17108 32709 ft 534 kts 62°
2026-05-05 12:47 43.31865 -77.07977 32717 ft 534 kts 62°
2026-05-05 12:48 43.35191 -76.98801 32710 ft 535 kts 62°
2026-05-05 12:48 43.38505 -76.89628 32701 ft 536 kts 62°
2026-05-05 12:49 43.41800 -76.80477 32693 ft 536 kts 62°
2026-05-05 12:49 43.45104 -76.71274 32719 ft 536 kts 63°
2026-05-05 12:50 43.48403 -76.62053 32710 ft 536 kts 63°
2026-05-05 12:50 43.51676 -76.52871 32710 ft 537 kts 63°
2026-05-05 12:51 43.54961 -76.43626 32702 ft 536 kts 62°
2026-05-05 12:51 43.58238 -76.34375 32699 ft 535 kts 63°
2026-05-05 12:52 43.61475 -76.25205 32685 ft 536 kts 63°
2026-05-05 12:52 43.64734 -76.15940 32677 ft 536 kts 63°
2026-05-05 12:53 43.67994 -76.06643 32681 ft 536 kts 63°
2026-05-05 12:53 43.71240 -75.97352 32671 ft 536 kts 63°
2026-05-05 12:54 43.76080 -75.83442 32677 ft 536 kts 63°
2026-05-05 12:55 43.79284 -75.74193 32665 ft 535 kts 63°
2026-05-05 12:55 43.82494 -75.64896 32656 ft 534 kts 63°
2026-05-05 12:56 43.85693 -75.55600 32659 ft 533 kts 63°
2026-05-05 12:56 43.88874 -75.46322 32680 ft 532 kts 63°
2026-05-05 12:57 43.92031 -75.37087 32679 ft 531 kts 63°
2026-05-05 12:57 43.95187 -75.27820 32692 ft 530 kts 63°
2026-05-05 12:58 43.98327 -75.18568 32714 ft 529 kts 64°
2026-05-05 12:58 44.01441 -75.09362 32723 ft 529 kts 64°
2026-05-05 12:59 44.04575 -75.00063 32721 ft 529 kts 64°
2026-05-05 12:59 44.07672 -74.90843 32717 ft 529 kts 64°
2026-05-05 13:00 44.12337 -74.76897 32715 ft 529 kts 64°
2026-05-05 13:01 44.18521 -74.58294 32726 ft 530 kts 64°
2026-05-05 13:01 44.21616 -74.48934 32734 ft 532 kts 64°
2026-05-05 13:02 44.24696 -74.39587 32723 ft 533 kts 64°
2026-05-05 13:02 44.27783 -74.30188 32734 ft 534 kts 64°
2026-05-05 13:03 44.30872 -74.20747 32736 ft 535 kts 64°
2026-05-05 13:03 44.33959 -74.11279 32712 ft 535 kts 64°
2026-05-05 13:04 44.37035 -74.01812 32730 ft 533 kts 64°
2026-05-05 13:04 44.40089 -73.92376 32721 ft 532 kts 64°
2026-05-05 13:05 44.43109 -73.83010 32737 ft 531 kts 65°
2026-05-05 13:05 44.46144 -73.73570 32724 ft 531 kts 65°
2026-05-05 13:06 44.49176 -73.64107 32716 ft 532 kts 65°
2026-05-05 13:06 44.52195 -73.54644 32712 ft 532 kts 65°
2026-05-05 13:07 44.55212 -73.45151 32712 ft 533 kts 65°
2026-05-05 13:07 44.58213 -73.35679 32705 ft 535 kts 65°
2026-05-05 13:08 44.61230 -73.26118 32705 ft 536 kts 65°
2026-05-05 13:08 44.64251 -73.16512 32724 ft 537 kts 65°
2026-05-05 13:09 44.67264 -73.06895 32724 ft 538 kts 65°
2026-05-05 13:09 44.70250 -72.97327 32731 ft 538 kts 65°
2026-05-05 13:10 44.73259 -72.87650 32714 ft 538 kts 65°
2026-05-05 13:10 44.76241 -72.78023 32740 ft 538 kts 65°
2026-05-05 13:11 44.79230 -72.68341 32740 ft 538 kts 65°
2026-05-05 13:11 44.82177 -72.58758 32742 ft 535 kts 65°
2026-05-05 13:12 44.85124 -72.49132 32753 ft 534 kts 65°
2026-05-05 13:12 44.88062 -72.39503 32767 ft 532 kts 65°
2026-05-05 13:13 44.90965 -72.29955 32771 ft 532 kts 65°
2026-05-05 13:13 44.93879 -72.20337 32765 ft 532 kts 65°
2026-05-05 13:14 44.96780 -72.10718 32754 ft 532 kts 65°
2026-05-05 13:14 44.99678 -72.01133 32742 ft 532 kts 63°
2026-05-05 13:15 45.03196 -71.91945 32753 ft 531 kts 56°
2026-05-05 13:15 45.06953 -71.82998 32743 ft 532 kts 56°
2026-05-05 13:16 45.10714 -71.73967 32751 ft 533 kts 57°
2026-05-05 13:16 45.14455 -71.64854 32743 ft 534 kts 57°
2026-05-05 13:17 45.18148 -71.55787 32743 ft 534 kts 57°
2026-05-05 13:17 45.21851 -71.46659 32716 ft 533 kts 57°
2026-05-05 13:18 45.25552 -71.37516 32737 ft 532 kts 57°
2026-05-05 13:18 45.29217 -71.28438 32748 ft 531 kts 57°
2026-05-05 13:19 45.32886 -71.19322 32754 ft 530 kts 57°
2026-05-05 13:19 45.36543 -71.10204 32751 ft 530 kts 57°
2026-05-05 13:20 45.40188 -71.01086 32752 ft 529 kts 57°
2026-05-05 13:20 45.43802 -70.92017 32748 ft 529 kts 57°
2026-05-05 13:21 45.47427 -70.82890 32747 ft 528 kts 57°
2026-05-05 13:21 45.51046 -70.73746 32750 ft 528 kts 57°
2026-05-05 13:22 45.54633 -70.64655 32737 ft 529 kts 57°
2026-05-05 13:22 45.58238 -70.55489 32751 ft 530 kts 57°
2026-05-05 13:23 45.61853 -70.46269 32754 ft 530 kts 57°
2026-05-05 13:23 45.65433 -70.37104 32757 ft 531 kts 57°
2026-05-05 13:24 45.69026 -70.27875 32755 ft 531 kts 57°
2026-05-05 13:24 45.72623 -70.18605 32747 ft 532 kts 57°
2026-05-05 13:25 45.76210 -70.09327 32752 ft 532 kts 57°
2026-05-05 13:25 45.79764 -70.00105 32747 ft 532 kts 57°
2026-05-05 13:26 45.83335 -69.90809 32758 ft 532 kts 57°
2026-05-05 13:26 45.86301 -69.83064 32752 ft 531 kts 57°
2026-05-05 13:27 45.89842 -69.73790 32745 ft 531 kts 57°
2026-05-05 13:27 45.93399 -69.64439 32744 ft 531 kts 57°
2026-05-05 13:28 45.96913 -69.55169 32751 ft 531 kts 57°
2026-05-05 13:28 46.00443 -69.45828 32748 ft 531 kts 57°
2026-05-05 13:29 46.03976 -69.36446 32743 ft 532 kts 57°
2026-05-05 13:29 46.07493 -69.27075 32741 ft 532 kts 57°
2026-05-05 13:30 46.10986 -69.17735 32761 ft 533 kts 57°
2026-05-05 13:30 46.14510 -69.08278 32746 ft 534 kts 57°
2026-05-05 13:31 46.17999 -68.98882 32753 ft 534 kts 57°
2026-05-05 13:31 46.21526 -68.89353 32752 ft 535 kts 58°
2026-05-05 13:32 46.25018 -68.79883 32759 ft 535 kts 57°
2026-05-05 13:32 46.28489 -68.70437 32754 ft 535 kts 57°
2026-05-05 13:33 46.31971 -68.60926 32750 ft 533 kts 57°
2026-05-05 13:33 46.35434 -68.51435 32762 ft 532 kts 57°
2026-05-05 13:34 46.38881 -68.41953 32778 ft 532 kts 57°
2026-05-05 13:34 46.42300 -68.32521 32764 ft 532 kts 57°
2026-05-05 13:35 46.45733 -68.23013 32777 ft 532 kts 57°
2026-05-05 13:35 46.49157 -68.13496 32773 ft 532 kts 57°
2026-05-05 13:36 46.52578 -68.03952 32783 ft 532 kts 57°
2026-05-05 13:36 46.55992 -67.94395 32769 ft 532 kts 57°
2026-05-05 13:37 46.59384 -67.84866 32771 ft 532 kts 57°
2026-05-05 13:37 46.62782 -67.75283 32766 ft 532 kts 57°
2026-05-05 13:38 46.66172 -67.65688 32773 ft 532 kts 58°
2026-05-05 13:38 46.69535 -67.56137 32761 ft 533 kts 58°
2026-05-05 13:39 46.72910 -67.46516 32768 ft 532 kts 58°
2026-05-05 13:39 46.76276 -67.36885 32769 ft 531 kts 58°
2026-05-05 13:40 46.79602 -67.27332 32784 ft 531 kts 58°
2026-05-05 13:40 46.82942 -67.17710 32767 ft 531 kts 58°
2026-05-05 13:41 46.86149 -67.07961 32762 ft 534 kts 64°
2026-05-05 13:41 46.88283 -66.97558 32770 ft 541 kts 76°
2026-05-05 13:42 46.89445 -66.86654 32769 ft 541 kts 78°
2026-05-05 13:42 46.90526 -66.75775 32789 ft 540 kts 78°
2026-05-05 13:43 46.91630 -66.64973 32778 ft 539 kts 78°
2026-05-05 13:43 46.92760 -66.54124 32780 ft 538 kts 78°
2026-05-05 13:44 46.93886 -66.43283 32792 ft 538 kts 77°
2026-05-05 13:44 46.94996 -66.32461 32778 ft 537 kts 78°
2026-05-05 13:45 46.96092 -66.21660 32791 ft 536 kts 78°
2026-05-05 13:45 46.97176 -66.10875 32791 ft 536 kts 78°
2026-05-05 13:46 46.98247 -66.00099 32799 ft 537 kts 78°
2026-05-05 13:46 46.99316 -65.89241 32795 ft 538 kts 78°
2026-05-05 13:47 47.00375 -65.78373 32806 ft 538 kts 78°
2026-05-05 13:47 47.01418 -65.67568 32797 ft 539 kts 78°
2026-05-05 13:48 47.02457 -65.56684 32803 ft 539 kts 78°
2026-05-05 13:48 47.03488 -65.45785 32798 ft 539 kts 78°
2026-05-05 13:49 47.04504 -65.34907 32815 ft 538 kts 78°
2026-05-05 13:49 47.05506 -65.24084 32811 ft 537 kts 78°
2026-05-05 13:50 47.06498 -65.13255 32804 ft 535 kts 78°
2026-05-05 13:50 47.07478 -65.02430 32810 ft 534 kts 78°
2026-05-05 13:51 47.08447 -64.91615 32813 ft 533 kts 78°
2026-05-05 13:51 47.09400 -64.80877 32816 ft 532 kts 78°
2026-05-05 13:52 47.10342 -64.70135 32817 ft 531 kts 78°
2026-05-05 13:52 47.11276 -64.59376 32817 ft 531 kts 78°
2026-05-05 13:53 47.12200 -64.48596 32817 ft 532 kts 78°
2026-05-05 13:53 47.13112 -64.37851 32837 ft 531 kts 78°
2026-05-05 13:54 47.14017 -64.27055 32838 ft 531 kts 78°
2026-05-05 13:54 47.14911 -64.16266 32820 ft 531 kts 78°
2026-05-05 13:55 47.15789 -64.05539 32823 ft 531 kts 78°
2026-05-05 13:55 47.16664 -63.94732 32836 ft 532 kts 78°
2026-05-05 13:56 47.17530 -63.83909 32835 ft 533 kts 79°
2026-05-05 13:56 47.18380 -63.73146 32837 ft 533 kts 79°
2026-05-05 13:57 47.19226 -63.62301 32846 ft 533 kts 79°
2026-05-05 13:57 47.20063 -63.51443 32843 ft 534 kts 79°
2026-05-05 13:58 47.20884 -63.40651 32855 ft 534 kts 79°
2026-05-05 13:58 47.21702 -63.29773 32849 ft 534 kts 79°
2026-05-05 13:59 47.22907 -63.13469 32856 ft 534 kts 79°
2026-05-05 14:00 47.23957 -62.99000 32862 ft 533 kts 79°
2026-05-05 14:00 47.24855 -62.86410 32871 ft 533 kts 79°
2026-05-05 14:01 47.25620 -62.75535 32868 ft 533 kts 79°
2026-05-05 14:01 47.26374 -62.64651 32872 ft 533 kts 79°
2026-05-05 14:02 47.27113 -62.53852 32885 ft 534 kts 79°
2026-05-05 14:02 47.27849 -62.42930 32887 ft 534 kts 79°
2026-05-05 14:03 47.28571 -62.32069 32878 ft 534 kts 79°
2026-05-05 14:03 47.29287 -62.21139 32889 ft 534 kts 79°
2026-05-05 14:04 47.29989 -62.10252 32882 ft 534 kts 80°
2026-05-05 14:04 47.30678 -61.99403 32894 ft 534 kts 80°
2026-05-05 14:05 47.31360 -61.88504 32888 ft 534 kts 80°
2026-05-05 14:05 47.32035 -61.77570 32875 ft 535 kts 80°
2026-05-05 14:06 47.32693 -61.66718 32878 ft 536 kts 80°
2026-05-05 14:06 47.33348 -61.55750 32883 ft 536 kts 80°
2026-05-05 14:07 47.33993 -61.44771 32896 ft 537 kts 80°
2026-05-05 14:07 47.34625 -61.33831 32897 ft 538 kts 80°
2026-05-05 14:08 47.35251 -61.22808 32904 ft 539 kts 80°
2026-05-05 14:08 47.35866 -61.11780 32901 ft 539 kts 80°
2026-05-05 14:09 47.36469 -61.00783 32907 ft 539 kts 80°
2026-05-05 14:09 47.37064 -60.89735 32907 ft 540 kts 80°
2026-05-05 14:10 47.37651 -60.78646 32910 ft 539 kts 80°
2026-05-05 14:10 47.38221 -60.67673 32908 ft 539 kts 81°
2026-05-05 14:11 47.38784 -60.56623 32914 ft 539 kts 81°
2026-05-05 14:11 47.39337 -60.45556 32933 ft 539 kts 81°
2026-05-05 14:12 47.39878 -60.34545 32918 ft 540 kts 81°
2026-05-05 14:12 47.40321 -60.25344 32920 ft 540 kts 81°
2026-05-05 14:13 47.40844 -60.14271 32921 ft 540 kts 81°
2026-05-05 14:13 47.41439 -60.01392 32927 ft 540 kts 81°
2026-05-05 14:14 47.41857 -59.92150 32931 ft 540 kts 81°
2026-05-05 14:14 47.42348 -59.81065 32927 ft 540 kts 81°
2026-05-05 14:15 47.42825 -59.70067 32965 ft 539 kts 82°
2026-05-05 14:15 47.43294 -59.58994 32939 ft 539 kts 82°
2026-05-05 14:16 47.43752 -59.47932 32930 ft 538 kts 82°
2026-05-05 14:16 47.44197 -59.36955 32943 ft 537 kts 82°
2026-05-05 14:17 47.44632 -59.25932 32935 ft 537 kts 82°
2026-05-05 14:17 47.45058 -59.14893 32937 ft 536 kts 82°
2026-05-05 14:18 47.45469 -59.03952 32939 ft 536 kts 82°
2026-05-05 14:18 47.45873 -58.92937 32940 ft 537 kts 83°
2026-05-05 14:19 47.46267 -58.81887 32940 ft 537 kts 83°
2026-05-05 14:19 47.46647 -58.70917 32940 ft 536 kts 83°
2026-05-05 14:20 47.47018 -58.59893 32938 ft 536 kts 83°
2026-05-05 14:20 47.47380 -58.48866 32942 ft 536 kts 83°
2026-05-05 14:21 47.47729 -58.37890 32950 ft 537 kts 83°
2026-05-05 14:21 47.48070 -58.26851 32972 ft 537 kts 84°
2026-05-05 14:22 47.48400 -58.15799 32946 ft 537 kts 84°
2026-05-05 14:22 47.48717 -58.04820 32940 ft 536 kts 84°
2026-05-05 14:23 47.49025 -57.93802 32944 ft 535 kts 84°
2026-05-05 14:23 47.49320 -57.82861 32940 ft 535 kts 84°
2026-05-05 14:24 47.49606 -57.71865 32940 ft 534 kts 84°
2026-05-05 14:24 47.49882 -57.60876 32949 ft 534 kts 85°
2026-05-05 14:25 47.50148 -57.49881 32938 ft 534 kts 85°
2026-05-05 14:25 47.50403 -57.38891 32946 ft 534 kts 85°
2026-05-05 14:26 47.50645 -57.27963 32943 ft 534 kts 85°
2026-05-05 14:26 47.50878 -57.16964 32958 ft 534 kts 85°
2026-05-05 14:27 47.51101 -57.06015 32948 ft 534 kts 86°
2026-05-05 14:27 47.51314 -56.95009 32944 ft 534 kts 86°
2026-05-05 14:28 47.51516 -56.84016 32945 ft 534 kts 86°
2026-05-05 14:28 47.51707 -56.73061 32938 ft 534 kts 86°
2026-05-05 14:29 47.51888 -56.62046 32925 ft 534 kts 86°
2026-05-05 14:29 47.52059 -56.51065 32918 ft 534 kts 86°
2026-05-05 14:30 47.52219 -56.40072 32900 ft 534 kts 87°
2026-05-05 14:30 47.52369 -56.29088 32904 ft 533 kts 87°
2026-05-05 14:31 47.52507 -56.18167 32917 ft 533 kts 87°
2026-05-05 14:31 47.52636 -56.07182 32909 ft 534 kts 88°
2026-05-05 14:32 47.52754 -55.96168 32901 ft 534 kts 88°
2026-05-05 14:32 47.52861 -55.85250 32905 ft 533 kts 88°
2026-05-05 14:33 47.52958 -55.74242 32903 ft 533 kts 88°
2026-05-05 14:33 47.53044 -55.63307 32898 ft 533 kts 88°
2026-05-05 14:34 47.53122 -55.52320 32911 ft 533 kts 88°
2026-05-05 14:34 47.53186 -55.41340 32918 ft 533 kts 89°
2026-05-05 14:35 47.53241 -55.30353 32927 ft 533 kts 89°
2026-05-05 14:35 47.53286 -55.19390 32932 ft 532 kts 89°
2026-05-05 14:36 47.53319 -55.08497 32946 ft 532 kts 89°
2026-05-05 14:36 47.53343 -54.97518 32949 ft 532 kts 89°
2026-05-05 14:37 47.53357 -54.86559 32952 ft 532 kts 90°
2026-05-05 14:37 47.53360 -54.75601 32954 ft 533 kts 90°
2026-05-05 14:38 47.53352 -54.64689 32974 ft 534 kts 90°
2026-05-05 14:38 47.53334 -54.53652 32952 ft 535 kts 90°
2026-05-05 14:39 47.53305 -54.42629 32952 ft 535 kts 90°
2026-05-05 14:39 47.53267 -54.31688 32905 ft 534 kts 90°
2026-05-05 14:40 47.53217 -54.20677 32929 ft 534 kts 91°
2026-05-05 14:40 47.53156 -54.09660 32952 ft 536 kts 91°
2026-05-05 14:41 47.53122 -54.04111 33178 ft 539 kts 91°
2026-05-05 14:41 47.53086 -53.98625 33548 ft 538 kts 91°
2026-05-05 14:41 47.53046 -53.93070 33931 ft 537 kts 91°
2026-05-05 14:41 47.53004 -53.87530 34259 ft 536 kts 91°
2026-05-05 14:42 47.52960 -53.82064 34589 ft 534 kts 91°
2026-05-05 14:42 47.52913 -53.76581 34854 ft 534 kts 91°
2026-05-05 14:42 47.52810 -53.65527 34939 ft 536 kts 91°
2026-05-05 14:43 47.52696 -53.54491 34937 ft 533 kts 91°
2026-05-05 14:43 47.52575 -53.43590 34939 ft 531 kts 91°
2026-05-05 14:44 47.52441 -53.32661 34931 ft 530 kts 92°
2026-05-05 14:44 47.52298 -53.21730 34952 ft 530 kts 92°
2026-05-05 14:45 47.52146 -53.10899 34941 ft 530 kts 92°
2026-05-05 14:45 47.51981 -52.99969 34933 ft 531 kts 92°
2026-05-05 14:46 47.51806 -52.89012 34933 ft 532 kts 92°
2026-05-05 14:46 47.51622 -52.78113 34908 ft 533 kts 92°
2026-05-05 14:47 47.51426 -52.67112 34926 ft 534 kts 92°
2026-05-05 14:47 47.51218 -52.56095 34944 ft 535 kts 92°
2026-05-05 14:48 47.51002 -52.45132 34971 ft 536 kts 93°
2026-05-05 14:48 47.50772 -52.34066 34957 ft 537 kts 93°
2026-05-05 14:49 47.50534 -52.23063 34964 ft 537 kts 93°
2026-05-05 14:49 47.50285 -52.12002 34970 ft 537 kts 93°
2026-05-05 14:50 47.50598 -52.00953 34982 ft 538 kts 81°
2026-05-05 14:50 47.52363 -51.90296 34982 ft 537 kts 69°
2026-05-05 14:51 47.55082 -51.79985 34995 ft 536 kts 67°
2026-05-05 14:51 47.57821 -51.69715 34993 ft 536 kts 68°
2026-05-05 14:52 47.60499 -51.59425 34996 ft 535 kts 68°
2026-05-05 14:52 47.63125 -51.49166 34990 ft 535 kts 68°
2026-05-05 14:53 47.65753 -51.38835 34997 ft 535 kts 69°
2026-05-05 14:53 47.68380 -51.28474 34997 ft 535 kts 69°
2026-05-05 14:54 47.70980 -51.18186 34990 ft 535 kts 69°
2026-05-05 14:54 47.73585 -51.07828 35003 ft 535 kts 69°
2026-05-05 14:55 47.76182 -50.97456 35008 ft 535 kts 69°
2026-05-05 14:55 47.78773 -50.87061 34996 ft 535 kts 69°
2026-05-05 14:56 47.81337 -50.76724 35000 ft 535 kts 69°
2026-05-05 14:56 47.83910 -50.66303 35003 ft 535 kts 69°
2026-05-05 14:57 47.86468 -50.55894 35008 ft 536 kts 69°
2026-05-05 14:57 47.89026 -50.45438 35007 ft 537 kts 70°
2026-05-05 14:58 47.91560 -50.35028 35015 ft 537 kts 70°
2026-05-05 14:58 47.93675 -50.26303 35015 ft 538 kts 70°
2026-05-05 14:59 47.96215 -50.15779 35017 ft 538 kts 70°
2026-05-05 14:59 47.98737 -50.05285 35007 ft 538 kts 70°
2026-05-05 15:00 48.01281 -49.94755 35012 ft 538 kts 69°
2026-05-05 15:00 48.03904 -49.84337 35016 ft 538 kts 69°
2026-05-05 15:01 48.06558 -49.73863 35016 ft 537 kts 69°
2026-05-05 15:01 48.09190 -49.63359 35011 ft 538 kts 69°
2026-05-05 15:02 48.11779 -49.52927 35019 ft 538 kts 69°
2026-05-05 15:02 48.14380 -49.42383 35021 ft 538 kts 69°
2026-05-05 15:03 48.16949 -49.31923 35023 ft 537 kts 70°
2026-05-05 15:03 48.19538 -49.21337 35020 ft 537 kts 70°
2026-05-05 15:04 48.22089 -49.10858 35019 ft 537 kts 70°
2026-05-05 15:04 48.24638 -49.00336 35022 ft 536 kts 70°
2026-05-05 15:05 48.28433 -48.84582 35022 ft 536 kts 70°
2026-05-05 15:06 48.30956 -48.74043 35029 ft 536 kts 70°
2026-05-05 15:06 48.33469 -48.63496 35028 ft 536 kts 70°
2026-05-05 15:07 48.35977 -48.52920 35021 ft 536 kts 71°
2026-05-05 15:07 48.38462 -48.42384 35033 ft 537 kts 71°
2026-05-05 15:08 48.40956 -48.31763 35030 ft 537 kts 71°
2026-05-05 15:08 48.43443 -48.21119 35035 ft 537 kts 71°
2026-05-05 15:09 48.45900 -48.10555 35049 ft 537 kts 71°
2026-05-05 15:09 48.48364 -47.99904 35032 ft 538 kts 71°
2026-05-05 15:10 48.50822 -47.89228 35039 ft 537 kts 72°
2026-05-05 15:10 48.53251 -47.78623 35021 ft 537 kts 72°
2026-05-05 15:11 48.55686 -47.67943 35042 ft 538 kts 72°
2026-05-05 15:11 48.58120 -47.57210 35052 ft 539 kts 72°
2026-05-05 15:12 48.60526 -47.46543 35048 ft 540 kts 72°
2026-05-05 15:12 48.62949 -47.35751 35049 ft 541 kts 72°
2026-05-05 15:13 48.65361 -47.24956 35049 ft 541 kts 73°
2026-05-05 15:13 48.67763 -47.14144 35053 ft 541 kts 73°
2026-05-05 15:14 48.70144 -47.03375 35052 ft 541 kts 73°
2026-05-05 15:14 48.72529 -46.92530 35055 ft 540 kts 73°
2026-05-05 15:15 48.74880 -46.81784 35048 ft 540 kts 73°
2026-05-05 15:15 48.77229 -46.70989 35056 ft 539 kts 73°
2026-05-05 15:16 48.79570 -46.60177 35065 ft 539 kts 73°
2026-05-05 15:16 48.81902 -46.49349 35064 ft 539 kts 73°
2026-05-05 15:17 48.84212 -46.38568 35059 ft 540 kts 74°
2026-05-05 15:17 48.86526 -46.27710 35062 ft 540 kts 74°
2026-05-05 15:18 48.88832 -46.16830 35060 ft 540 kts 74°
2026-05-05 15:18 48.91110 -46.06023 35064 ft 540 kts 74°
2026-05-05 15:19 48.93395 -45.95131 35073 ft 540 kts 75°
2026-05-05 15:19 48.95665 -45.84248 35073 ft 539 kts 75°
2026-05-05 15:20 48.97925 -45.73350 35076 ft 539 kts 75°
2026-05-05 15:20 49.00162 -45.62508 35076 ft 539 kts 75°
2026-05-05 15:21 49.02401 -45.51597 35082 ft 538 kts 75°
2026-05-05 15:21 49.04625 -45.40699 35085 ft 538 kts 75°
2026-05-05 15:22 49.06839 -45.29787 35086 ft 537 kts 75°
2026-05-05 15:22 49.09026 -45.18950 35098 ft 537 kts 75°
2026-05-05 15:23 49.11220 -45.08020 35094 ft 537 kts 76°
2026-05-05 15:23 49.13400 -44.97101 35096 ft 536 kts 76°
2026-05-05 15:24 49.15551 -44.86260 35103 ft 536 kts 76°
2026-05-05 15:24 49.17708 -44.75330 35067 ft 536 kts 76°
2026-05-05 15:25 49.19840 -44.64470 35112 ft 536 kts 76°
2026-05-05 15:25 49.21980 -44.53500 35114 ft 537 kts 76°
2026-05-05 15:26 49.24110 -44.42520 35117 ft 538 kts 76°
2026-05-05 15:26 49.26235 -44.31505 35120 ft 539 kts 76°
2026-05-05 15:27 49.28339 -44.20533 35118 ft 540 kts 76°
2026-05-05 15:27 49.30448 -44.09476 35120 ft 540 kts 77°
2026-05-05 15:28 49.32547 -43.98405 35128 ft 540 kts 77°
2026-05-05 15:28 49.34626 -43.87372 35135 ft 540 kts 77°
2026-05-05 15:29 49.36702 -43.76287 35135 ft 539 kts 77°
2026-05-05 15:29 49.38761 -43.65235 35123 ft 538 kts 77°
2026-05-05 15:30 49.40795 -43.54246 35137 ft 538 kts 77°
2026-05-05 15:30 49.42829 -43.43191 35155 ft 538 kts 77°
2026-05-05 15:31 49.44860 -43.32088 35153 ft 538 kts 77°
2026-05-05 15:31 49.46865 -43.21058 35148 ft 538 kts 77°
2026-05-05 15:32 49.48872 -43.09954 35158 ft 538 kts 77°
2026-05-05 15:32 49.50858 -42.98895 35160 ft 538 kts 78°
2026-05-05 15:33 49.52848 -42.87745 35162 ft 538 kts 78°
2026-05-05 15:33 49.54823 -42.76611 35163 ft 537 kts 78°
2026-05-05 15:34 49.56771 -42.65561 35169 ft 537 kts 78°
2026-05-05 15:34 49.58717 -42.54454 35168 ft 536 kts 78°
2026-05-05 15:35 49.60649 -42.43355 35172 ft 536 kts 78°
2026-05-05 15:35 49.62575 -42.32225 35172 ft 536 kts 78°
2026-05-05 15:36 49.64485 -42.21113 35181 ft 536 kts 78°
2026-05-05 15:36 49.66378 -42.10036 35183 ft 536 kts 78°
2026-05-05 15:37 49.68274 -41.98865 35188 ft 536 kts 78°
2026-05-05 15:37 49.70155 -41.87706 35174 ft 536 kts 78°
2026-05-05 15:38 49.72014 -41.76614 35190 ft 536 kts 79°
2026-05-05 15:38 49.73872 -41.65453 35194 ft 535 kts 79°
2026-05-05 15:39 49.75717 -41.54296 35146 ft 535 kts 79°
2026-05-05 15:39 49.77553 -41.43120 35175 ft 535 kts 79°
2026-05-05 15:40 49.79364 -41.32026 35196 ft 535 kts 79°
2026-05-05 15:40 49.81180 -41.20821 35198 ft 535 kts 79°
2026-05-05 15:41 49.82983 -41.09625 35195 ft 536 kts 79°
2026-05-05 15:41 49.84767 -40.98478 35181 ft 536 kts 79°
2026-05-05 15:42 49.86550 -40.87254 35196 ft 536 kts 79°
2026-05-05 15:42 49.88023 -40.77929 35199 ft 535 kts 79°
2026-05-05 15:43 49.89786 -40.66690 35200 ft 535 kts 79°
2026-05-05 15:43 49.91529 -40.55507 35201 ft 535 kts 79°
2026-05-05 15:44 49.93269 -40.44263 35162 ft 535 kts 79°
2026-05-05 15:44 49.94995 -40.33027 35194 ft 534 kts 79°
2026-05-05 15:45 49.96699 -40.21863 35207 ft 534 kts 79°
2026-05-05 15:45 49.98406 -40.10598 35201 ft 535 kts 79°
2026-05-05 15:46 50.00176 -39.99389 35205 ft 537 kts 76°
2026-05-05 15:46 50.02782 -39.88461 35208 ft 539 kts 70°
2026-05-05 15:47 50.05577 -39.77636 35205 ft 539 kts 70°
2026-05-05 15:47 50.08341 -39.66772 35205 ft 539 kts 71°
2026-05-05 15:48 50.11060 -39.55875 35197 ft 539 kts 71°
2026-05-05 15:48 50.13736 -39.45039 35201 ft 538 kts 71°
2026-05-05 15:49 50.16415 -39.34137 35204 ft 538 kts 71°
2026-05-05 15:49 50.19087 -39.23223 35206 ft 537 kts 71°
2026-05-05 15:50 50.21733 -39.12366 35201 ft 537 kts 71°
2026-05-05 15:50 50.24379 -39.01461 35211 ft 536 kts 71°
2026-05-05 15:51 50.27001 -38.90594 35176 ft 536 kts 71°
2026-05-05 15:51 50.29623 -38.79676 35205 ft 537 kts 71°
2026-05-05 15:52 50.32243 -38.68706 35207 ft 537 kts 71°
2026-05-05 15:52 50.34855 -38.57719 35210 ft 538 kts 71°
2026-05-05 15:53 50.37446 -38.46765 35210 ft 539 kts 71°
2026-05-05 15:53 50.40046 -38.35717 35211 ft 540 kts 71°
2026-05-05 15:54 50.42635 -38.24659 35216 ft 539 kts 71°
2026-05-05 15:54 50.45194 -38.13674 35209 ft 538 kts 71°
2026-05-05 15:55 50.47754 -38.02627 35205 ft 537 kts 72°
2026-05-05 15:55 50.50299 -37.91590 35186 ft 535 kts 72°
2026-05-05 15:56 50.52804 -37.80667 35201 ft 534 kts 72°
2026-05-05 15:56 50.55310 -37.69682 35208 ft 532 kts 72°
2026-05-05 15:57 50.57790 -37.58757 35210 ft 532 kts 72°
2026-05-05 15:57 50.60270 -37.47772 35191 ft 532 kts 72°
2026-05-05 15:58 50.62736 -37.36797 35207 ft 531 kts 72°
2026-05-05 15:58 50.65189 -37.25820 35202 ft 531 kts 72°
2026-05-05 15:59 50.67631 -37.14834 35216 ft 531 kts 72°
2026-05-05 15:59 50.70066 -37.03820 35189 ft 531 kts 72°
2026-05-05 16:00 50.72479 -36.92849 35198 ft 531 kts 72°
2026-05-05 16:00 50.74892 -36.81816 35211 ft 531 kts 72°
2026-05-05 16:01 50.77283 -36.70829 35206 ft 532 kts 72°
2026-05-05 16:01 50.79680 -36.59753 35195 ft 532 kts 72°
2026-05-05 16:02 50.82067 -36.48669 35199 ft 532 kts 72°
2026-05-05 16:02 50.84440 -36.37584 35196 ft 531 kts 72°
2026-05-05 16:03 50.86783 -36.26583 35198 ft 530 kts 72°
2026-05-05 16:03 50.89131 -36.15496 35181 ft 529 kts 72°
2026-05-05 16:04 50.91449 -36.04496 35192 ft 527 kts 72°
2026-05-05 16:04 50.93754 -35.93493 35189 ft 525 kts 72°
2026-05-05 16:05 50.96045 -35.82495 35189 ft 524 kts 72°
2026-05-05 16:05 50.98310 -35.71565 35190 ft 523 kts 73°
2026-05-05 16:06 51.00574 -35.60578 35185 ft 523 kts 73°
2026-05-05 16:06 51.02827 -35.49583 35186 ft 523 kts 73°
2026-05-05 16:07 51.05072 -35.38566 35186 ft 524 kts 73°
2026-05-05 16:07 51.07296 -35.27592 35182 ft 524 kts 73°
2026-05-05 16:08 51.09528 -35.16519 35186 ft 523 kts 73°
2026-05-05 16:08 51.11724 -35.05560 35156 ft 522 kts 73°
2026-05-05 16:09 51.13925 -34.94515 35179 ft 523 kts 73°
2026-05-05 16:09 51.16118 -34.83446 35162 ft 523 kts 73°
2026-05-05 16:10 51.18289 -34.72426 35174 ft 522 kts 73°
2026-05-05 16:10 51.20446 -34.61413 35181 ft 521 kts 73°
2026-05-05 16:11 51.22597 -34.50369 35186 ft 520 kts 73°
2026-05-05 16:12 51.26845 -34.28371 35184 ft 516 kts 74°
2026-05-05 16:13 51.32046 -34.01082 35177 ft 510 kts 74°
2026-05-05 16:13 51.34077 -33.90316 35172 ft 508 kts 74°
2026-05-05 16:14 51.38118 -33.68707 35194 ft 505 kts 74°
2026-05-05 16:15 51.42099 -33.47178 35194 ft 505 kts 75°
2026-05-05 16:16 51.46047 -33.25572 35196 ft 503 kts 75°
2026-05-05 16:17 51.48957 -33.09479 35204 ft 502 kts 75°
2026-05-05 16:18 51.51846 -32.93360 35204 ft 500 kts 75°
2026-05-05 16:19 51.54711 -32.77234 35202 ft 499 kts 75°
2026-05-05 16:19 51.57530 -32.61226 35223 ft 497 kts 75°
2026-05-05 16:20 51.61260 -32.39816 35221 ft 496 kts 75°
2026-05-05 16:22 51.65865 -32.13020 35232 ft 496 kts 76°
2026-05-05 16:23 51.69498 -31.91583 35230 ft 496 kts 75°
2026-05-05 16:23 51.72202 -31.75462 35241 ft 496 kts 75°
2026-05-05 16:24 51.73981 -31.64767 35237 ft 496 kts 75°
2026-05-05 16:25 51.76644 -31.48629 35242 ft 496 kts 75°
2026-05-05 16:25 51.79295 -31.32420 35248 ft 497 kts 75°
2026-05-05 16:26 51.82780 -31.10859 35253 ft 498 kts 75°
2026-05-05 16:27 51.84522 -30.99983 35258 ft 498 kts 75°
2026-05-05 16:27 51.86250 -30.89123 35258 ft 498 kts 75°
2026-05-05 16:28 51.87959 -30.78304 35259 ft 498 kts 75°
2026-05-05 16:28 51.89378 -30.69269 35258 ft 498 kts 75°
2026-05-05 16:29 51.91352 -30.56620 35265 ft 497 kts 75°
2026-05-05 16:29 51.93036 -30.45750 35265 ft 496 kts 75°
2026-05-05 16:30 51.94426 -30.36720 35267 ft 495 kts 75°
2026-05-05 16:30 51.96083 -30.25893 35269 ft 493 kts 75°
2026-05-05 16:31 51.97728 -30.15070 35280 ft 493 kts 74°
2026-05-05 16:31 51.99352 -30.04325 35275 ft 493 kts 74°
2026-05-05 16:32 52.01459 -29.93772 35266 ft 490 kts 65°
2026-05-05 16:32 52.04083 -29.83520 35273 ft 490 kts 65°
2026-05-05 16:33 52.06686 -29.73341 35297 ft 490 kts 65°
2026-05-05 16:33 52.09271 -29.63056 35285 ft 491 kts 65°
2026-05-05 16:34 52.11816 -29.52808 35280 ft 491 kts 65°
2026-05-05 16:34 52.14365 -29.42478 35282 ft 491 kts 65°
2026-05-05 16:35 52.16904 -29.32145 35285 ft 491 kts 65°
2026-05-05 16:35 52.19433 -29.21806 35278 ft 490 kts 65°
2026-05-05 16:36 52.21930 -29.11558 35278 ft 488 kts 65°
2026-05-05 16:36 52.24431 -29.01244 35279 ft 487 kts 65°
2026-05-05 16:37 52.26917 -28.90943 35280 ft 486 kts 65°
2026-05-05 16:37 52.29372 -28.80717 35296 ft 485 kts 64°
2026-05-05 16:38 52.31824 -28.70462 35287 ft 484 kts 64°
2026-05-05 16:38 52.34272 -28.60173 35289 ft 483 kts 64°
2026-05-05 16:39 52.36682 -28.49997 35288 ft 483 kts 65°
2026-05-05 16:39 52.39098 -28.39746 35317 ft 482 kts 64°
2026-05-05 16:40 52.41512 -28.29457 35297 ft 482 kts 64°
2026-05-05 16:40 52.43911 -28.19182 35291 ft 482 kts 64°
2026-05-05 16:41 52.46288 -28.08947 35291 ft 482 kts 64°
2026-05-05 16:41 52.48674 -27.98626 35290 ft 482 kts 65°
2026-05-05 16:42 52.51043 -27.88329 35302 ft 482 kts 64°
2026-05-05 16:42 52.53386 -27.78097 35295 ft 481 kts 65°
2026-05-05 16:43 52.55732 -27.67797 35292 ft 480 kts 65°
2026-05-05 16:43 52.58066 -27.57506 35299 ft 479 kts 65°
2026-05-05 16:44 52.60371 -27.47291 35310 ft 479 kts 65°
2026-05-05 16:44 52.62676 -27.37025 35300 ft 478 kts 65°
2026-05-05 16:45 52.64971 -27.26753 35292 ft 477 kts 65°
2026-05-05 16:45 52.67251 -27.16500 35298 ft 476 kts 65°
2026-05-05 16:46 52.69508 -27.06300 35333 ft 476 kts 65°
2026-05-05 16:46 52.71768 -26.96036 35303 ft 476 kts 65°
2026-05-05 16:47 52.74012 -26.85793 35293 ft 475 kts 65°
2026-05-05 16:47 52.76248 -26.75533 35296 ft 474 kts 65°
2026-05-05 16:48 52.78469 -26.65293 35296 ft 474 kts 65°
2026-05-05 16:48 52.80683 -26.55040 35296 ft 473 kts 65°
2026-05-05 16:49 52.82886 -26.44782 35297 ft 473 kts 65°
2026-05-05 16:49 52.85080 -26.34514 35296 ft 474 kts 66°
2026-05-05 16:50 52.87253 -26.24292 35298 ft 474 kts 66°
2026-05-05 16:50 52.89436 -26.13972 35335 ft 474 kts 66°
2026-05-05 16:51 52.91608 -26.03649 35297 ft 475 kts 66°
2026-05-05 16:51 52.93773 -25.93306 35293 ft 474 kts 66°
2026-05-05 16:52 52.95923 -25.82982 35290 ft 474 kts 66°
2026-05-05 16:52 52.98063 -25.72657 35289 ft 473 kts 66°
2026-05-05 16:53 53.00197 -25.62307 35303 ft 473 kts 66°
2026-05-05 16:53 53.02315 -25.51977 35297 ft 473 kts 66°
2026-05-05 16:54 53.04424 -25.41638 35285 ft 472 kts 66°
2026-05-05 16:54 53.06507 -25.31371 35293 ft 472 kts 66°
2026-05-05 16:55 53.08597 -25.21019 35317 ft 471 kts 67°
2026-05-05 16:55 53.10677 -25.10665 35288 ft 472 kts 67°
2026-05-05 16:56 53.12747 -25.00301 35286 ft 472 kts 67°
2026-05-05 16:56 53.14811 -24.89915 35282 ft 472 kts 67°
2026-05-05 16:57 53.16863 -24.79531 35284 ft 472 kts 67°
2026-05-05 16:57 53.18909 -24.69123 35297 ft 473 kts 67°
2026-05-05 16:58 53.20952 -24.58680 35286 ft 474 kts 68°
2026-05-05 16:58 53.22988 -24.48209 35281 ft 475 kts 68°
2026-05-05 16:59 53.25004 -24.37784 35282 ft 476 kts 68°
2026-05-05 16:59 53.27029 -24.27254 35275 ft 476 kts 68°
2026-05-05 17:00 53.29050 -24.16692 35289 ft 478 kts 68°
2026-05-05 17:00 53.31066 -24.06091 35285 ft 478 kts 68°
2026-05-05 17:01 53.33072 -23.95483 35272 ft 479 kts 68°
2026-05-05 17:01 53.35074 -23.84838 35270 ft 479 kts 69°
2026-05-05 17:02 53.37053 -23.74255 35276 ft 479 kts 69°
2026-05-05 17:02 53.39050 -23.63519 35266 ft 479 kts 69°
2026-05-05 17:03 53.41010 -23.52914 35270 ft 480 kts 69°
2026-05-05 17:03 53.42975 -23.42225 35266 ft 480 kts 69°
2026-05-05 17:04 53.44932 -23.31516 35264 ft 480 kts 69°
2026-05-05 17:04 53.46882 -23.20792 35269 ft 481 kts 69°
2026-05-05 17:05 53.48824 -23.10039 35262 ft 481 kts 70°
2026-05-05 17:05 53.50759 -22.99261 35262 ft 482 kts 70°
2026-05-05 17:06 53.52685 -22.88470 35259 ft 482 kts 70°
2026-05-05 17:06 53.54592 -22.77727 35265 ft 483 kts 70°
2026-05-05 17:07 53.56504 -22.66889 35253 ft 483 kts 70°
2026-05-05 17:07 53.58411 -22.56011 35249 ft 484 kts 70°
2026-05-05 17:08 53.60306 -22.45138 35253 ft 484 kts 70°
2026-05-05 17:08 53.62194 -22.34233 35253 ft 484 kts 70°
2026-05-05 17:09 53.64075 -22.23310 35257 ft 485 kts 71°
2026-05-05 17:09 53.65943 -22.12390 35248 ft 485 kts 71°
2026-05-05 17:10 53.67805 -22.01436 35247 ft 486 kts 71°
2026-05-05 17:10 53.69658 -21.90470 35245 ft 486 kts 71°
2026-05-05 17:11 53.71487 -21.79576 35242 ft 486 kts 71°
2026-05-05 17:11 53.73317 -21.68606 35239 ft 486 kts 71°
2026-05-05 17:12 53.75142 -21.57601 35242 ft 485 kts 71°
2026-05-05 17:12 53.76951 -21.46614 35242 ft 485 kts 71°
2026-05-05 17:13 53.78752 -21.35610 35254 ft 485 kts 72°
2026-05-05 17:13 53.80545 -21.24587 35242 ft 486 kts 72°
2026-05-05 17:14 53.82327 -21.13557 35239 ft 486 kts 72°
2026-05-05 17:14 53.84099 -21.02515 35240 ft 486 kts 72°
2026-05-05 17:15 53.85564 -20.93329 35236 ft 486 kts 72°
2026-05-05 17:15 53.87321 -20.82255 35246 ft 487 kts 72°
2026-05-05 17:16 53.89068 -20.71165 35234 ft 487 kts 72°
2026-05-05 17:16 53.90807 -20.60046 35231 ft 488 kts 72°
2026-05-05 17:17 53.92536 -20.48920 35232 ft 488 kts 72°
2026-05-05 17:17 53.94255 -20.37785 35230 ft 488 kts 73°
2026-05-05 17:18 53.95965 -20.26628 35234 ft 488 kts 73°
2026-05-05 17:18 53.97666 -20.15463 35225 ft 489 kts 73°
2026-05-05 17:19 53.99342 -20.04331 35228 ft 489 kts 75°
2026-05-05 17:19 54.00257 -19.92854 35222 ft 493 kts 86°
2026-05-05 17:20 54.00437 -19.81207 35237 ft 493 kts 86°
2026-05-05 17:20 54.00601 -19.69542 35223 ft 493 kts 86°
2026-05-05 17:21 54.00789 -19.57887 35219 ft 493 kts 86°
2026-05-05 17:22 54.01079 -19.40399 35221 ft 493 kts 86°
2026-05-05 17:22 54.01260 -19.28774 35228 ft 493 kts 87°
2026-05-05 17:23 54.01429 -19.17092 35214 ft 493 kts 87°
2026-05-05 17:23 54.01585 -19.05442 35218 ft 493 kts 87°
2026-05-05 17:24 54.01729 -18.93781 35214 ft 494 kts 87°
2026-05-05 17:24 54.01863 -18.82097 35214 ft 494 kts 88°
2026-05-05 17:25 54.01986 -18.70399 35212 ft 495 kts 88°
2026-05-05 17:25 54.02098 -18.58676 35213 ft 495 kts 88°
2026-05-05 17:26 54.02197 -18.47028 35210 ft 496 kts 88°
2026-05-05 17:26 54.02286 -18.35277 35213 ft 496 kts 88°
2026-05-05 17:27 54.02363 -18.23539 35213 ft 496 kts 88°
2026-05-05 17:27 54.02430 -18.11786 35205 ft 497 kts 89°
2026-05-05 17:28 54.02484 -18.00040 35204 ft 497 kts 89°
2026-05-05 17:28 54.02527 -17.88278 35203 ft 497 kts 89°
2026-05-05 17:29 54.02559 -17.76532 35205 ft 497 kts 89°
2026-05-05 17:29 54.02579 -17.64765 35205 ft 497 kts 89°
2026-05-05 17:30 54.02588 -17.53062 35203 ft 498 kts 89°
2026-05-05 17:30 54.02586 -17.41296 35205 ft 498 kts 89°
2026-05-05 17:31 54.02572 -17.29500 35203 ft 498 kts 89°
2026-05-05 17:31 54.02546 -17.17706 35190 ft 498 kts 90°
2026-05-05 17:32 54.02509 -17.05905 35206 ft 499 kts 90°
2026-05-05 17:32 54.02460 -16.94082 35198 ft 500 kts 90°
2026-05-05 17:33 54.02399 -16.82248 35204 ft 501 kts 90°
2026-05-05 17:33 54.02327 -16.70391 35201 ft 501 kts 90°
2026-05-05 17:34 54.02243 -16.58522 35194 ft 502 kts 90°
2026-05-05 17:34 54.02147 -16.46640 35198 ft 502 kts 90°
2026-05-05 17:35 54.02039 -16.34781 35193 ft 502 kts 90°
2026-05-05 17:35 54.01920 -16.22894 35192 ft 502 kts 90°
2026-05-05 17:36 54.01789 -16.11040 35200 ft 501 kts 90°
2026-05-05 17:36 54.01648 -15.99286 35201 ft 501 kts 91°
2026-05-05 17:37 54.01494 -15.87442 35186 ft 501 kts 91°
2026-05-05 17:37 54.01329 -15.75590 35194 ft 501 kts 91°
2026-05-05 17:38 54.01152 -15.63744 35188 ft 501 kts 91°
2026-05-05 17:38 54.00963 -15.51888 35185 ft 501 kts 91°
2026-05-05 17:39 54.00762 -15.40024 35181 ft 502 kts 91°
2026-05-05 17:39 54.00550 -15.28168 35187 ft 503 kts 91°
2026-05-05 17:40 54.00326 -15.16276 35185 ft 503 kts 91°
2026-05-05 17:40 54.00091 -15.04375 35182 ft 504 kts 91°
2026-05-05 17:41 53.99927 -14.92455 35180 ft 504 kts 89°
2026-05-05 17:41 54.00003 -14.80512 35178 ft 505 kts 89°
2026-05-05 17:42 54.00081 -14.68584 35186 ft 505 kts 89°
2026-05-05 17:42 54.00107 -14.56638 35178 ft 505 kts 90°
2026-05-05 17:43 54.00104 -14.44692 35179 ft 505 kts 90°
2026-05-05 17:43 54.00090 -14.32755 35180 ft 505 kts 90°
2026-05-05 17:44 54.00067 -14.20811 35179 ft 505 kts 90°
2026-05-05 17:44 54.00034 -14.08950 35175 ft 505 kts 90°
2026-05-05 17:45 53.99997 -13.97008 35175 ft 505 kts 90°
2026-05-05 17:45 54.00062 -13.85071 35171 ft 505 kts 89°
2026-05-05 17:46 54.00164 -13.73120 35167 ft 506 kts 89°
2026-05-05 17:46 54.00244 -13.61152 35171 ft 506 kts 89°
2026-05-05 17:47 54.00299 -13.49186 35167 ft 506 kts 89°
2026-05-05 17:47 54.00337 -13.37203 35159 ft 507 kts 90°
2026-05-05 17:48 54.00362 -13.25300 35160 ft 507 kts 90°
2026-05-05 17:48 54.00377 -13.13298 35161 ft 507 kts 90°
2026-05-05 17:49 54.00381 -13.01299 35162 ft 507 kts 90°
2026-05-05 17:49 54.00372 -12.89319 35159 ft 508 kts 90°
2026-05-05 17:50 54.00352 -12.77310 35165 ft 508 kts 90°
2026-05-05 17:50 54.00319 -12.65309 35161 ft 508 kts 90°
2026-05-05 17:51 54.00275 -12.53309 35158 ft 508 kts 90°
2026-05-05 17:51 54.00219 -12.41307 35152 ft 508 kts 90°
2026-05-05 17:52 54.00150 -12.29309 35157 ft 507 kts 90°
2026-05-05 17:52 54.00071 -12.17392 35150 ft 507 kts 90°
2026-05-05 17:53 53.99978 -12.05397 35141 ft 507 kts 91°
2026-05-05 17:53 53.99875 -11.93428 35146 ft 507 kts 91°
2026-05-05 17:54 53.99759 -11.81440 35144 ft 507 kts 91°
2026-05-05 17:54 53.99631 -11.69453 35142 ft 507 kts 91°
2026-05-05 17:55 53.99491 -11.57476 35140 ft 507 kts 91°
2026-05-05 17:55 53.99340 -11.45504 35140 ft 507 kts 91°
2026-05-05 17:56 53.99176 -11.33535 35138 ft 507 kts 91°
2026-05-05 17:56 53.99001 -11.21550 35135 ft 507 kts 91°
2026-05-05 17:57 53.98813 -11.09552 35131 ft 507 kts 91°
2026-05-05 17:57 53.98614 -10.97576 35125 ft 507 kts 91°
2026-05-05 17:58 53.98403 -10.85595 35128 ft 507 kts 91°
2026-05-05 17:58 53.98218 -10.75639 35132 ft 506 kts 91°
2026-05-05 17:59 53.97947 -10.61750 35131 ft 506 kts 92°
2026-05-05 17:59 53.97700 -10.49792 35133 ft 506 kts 92°
2026-05-05 18:00 53.97485 -10.39773 35126 ft 506 kts 92°
2026-05-05 18:00 53.97217 -10.27835 35124 ft 506 kts 92°
2026-05-05 18:01 53.96937 -10.15902 35126 ft 506 kts 92°
2026-05-05 18:01 53.96646 -10.03972 35116 ft 505 kts 92°
2026-05-05 18:02 53.96342 -9.92043 35114 ft 505 kts 92°
2026-05-05 18:02 53.96027 -9.80112 35112 ft 505 kts 92°
2026-05-05 18:03 53.95703 -9.68263 35117 ft 505 kts 92°
2026-05-05 18:03 53.95365 -9.56358 35098 ft 505 kts 92°
2026-05-05 18:04 53.95014 -9.44449 35100 ft 505 kts 92°
2026-05-05 18:04 53.94652 -9.32536 35107 ft 504 kts 92°
2026-05-05 18:05 53.94280 -9.20662 35102 ft 504 kts 93°
2026-05-05 18:05 53.93895 -9.08781 35102 ft 503 kts 93°
2026-05-05 18:06 53.93499 -8.96920 35105 ft 503 kts 93°
2026-05-05 18:06 53.93092 -8.85048 35105 ft 503 kts 93°
2026-05-05 18:07 53.92672 -8.73182 35087 ft 503 kts 93°
2026-05-05 18:07 53.92244 -8.61398 35099 ft 503 kts 93°
2026-05-05 18:08 53.91802 -8.49571 35098 ft 502 kts 93°
2026-05-05 18:08 53.91349 -8.37740 35088 ft 502 kts 94°
2026-05-05 18:09 53.90885 -8.25918 35079 ft 502 kts 94°
2026-05-05 18:09 53.90408 -8.14082 35078 ft 502 kts 94°
2026-05-05 18:10 53.89919 -8.02256 35080 ft 502 kts 94°
2026-05-05 18:10 53.89419 -7.90437 35073 ft 502 kts 94°
2026-05-05 18:11 53.88911 -7.78687 35096 ft 504 kts 94°
2026-05-05 18:11 53.88650 -7.72756 35341 ft 505 kts 95°
2026-05-05 18:11 53.88385 -7.66815 35724 ft 503 kts 95°
2026-05-05 18:11 53.88120 -7.60914 36120 ft 501 kts 95°
2026-05-05 18:12 53.87852 -7.55030 36491 ft 500 kts 95°
2026-05-05 18:12 53.87583 -7.49172 36821 ft 499 kts 95°
2026-05-05 18:12 53.87310 -7.43302 37000 ft 501 kts 95°
2026-05-05 18:13 53.86752 -7.31485 37064 ft 502 kts 95°
2026-05-05 18:13 53.86186 -7.19756 37057 ft 497 kts 95°
2026-05-05 18:14 53.85615 -7.08148 37060 ft 493 kts 95°
2026-05-05 18:14 53.85035 -6.96591 37064 ft 492 kts 95°
2026-05-05 18:15 53.84443 -6.85036 37062 ft 493 kts 95°
2026-05-05 18:15 53.83840 -6.73458 37069 ft 495 kts 95°
2026-05-05 18:16 53.83222 -6.61834 37065 ft 497 kts 95°
2026-05-05 18:16 53.82592 -6.50181 37066 ft 499 kts 95°
2026-05-05 18:17 53.81946 -6.38467 37056 ft 500 kts 96°
2026-05-05 18:17 53.81293 -6.26815 37062 ft 501 kts 96°
2026-05-05 18:18 53.80624 -6.15094 37059 ft 501 kts 96°
2026-05-05 18:18 53.79944 -6.03382 37056 ft 500 kts 96°
2026-05-05 18:19 53.79254 -5.91685 37056 ft 499 kts 96°
2026-05-05 18:19 53.78553 -5.80005 37056 ft 499 kts 96°
2026-05-05 18:20 53.77842 -5.68352 37058 ft 498 kts 96°
2026-05-05 18:20 53.77122 -5.56714 37053 ft 497 kts 96°
2026-05-05 18:21 53.76358 -5.45100 37051 ft 497 kts 98°
2026-05-05 18:21 53.75379 -5.33539 37055 ft 496 kts 99°
2026-05-05 18:22 53.74341 -5.22028 37063 ft 496 kts 99°
2026-05-05 18:22 53.73315 -5.10501 37048 ft 496 kts 99°
2026-05-05 18:23 53.72299 -4.98967 37046 ft 497 kts 99°
2026-05-05 18:23 53.71277 -4.87426 37047 ft 497 kts 99°
2026-05-05 18:24 53.70243 -4.75894 37045 ft 497 kts 99°
2026-05-05 18:24 53.69195 -4.64339 37046 ft 497 kts 99°
2026-05-05 18:25 53.68136 -4.52808 37033 ft 497 kts 99°
2026-05-05 18:25 53.67067 -4.41293 37036 ft 497 kts 99°
2026-05-05 18:26 53.65986 -4.29771 37029 ft 497 kts 99°
2026-05-05 18:26 53.64896 -4.18271 37035 ft 496 kts 99°
2026-05-05 18:27 53.63803 -4.06865 37031 ft 496 kts 100°
2026-05-05 18:27 53.62693 -3.95402 37032 ft 495 kts 100°
2026-05-05 18:28 53.61013 -3.78267 37029 ft 494 kts 100°
2026-05-05 18:28 53.59879 -3.66854 37030 ft 494 kts 100°
2026-05-05 18:29 53.58735 -3.55453 37032 ft 493 kts 100°
2026-05-05 18:29 53.57583 -3.44089 37028 ft 493 kts 100°
2026-05-05 18:30 53.56417 -3.32700 37029 ft 493 kts 101°
2026-05-05 18:30 53.55244 -3.21351 37030 ft 493 kts 101°
2026-05-05 18:31 53.54059 -3.09992 37023 ft 493 kts 101°
2026-05-05 18:31 53.52861 -2.98625 37028 ft 492 kts 101°
2026-05-05 18:32 53.51663 -2.87362 37020 ft 492 kts 101°
2026-05-05 18:32 53.50448 -2.76044 37022 ft 492 kts 101°
2026-05-05 18:33 53.49223 -2.64743 37019 ft 492 kts 101°
2026-05-05 18:33 53.47997 -2.53534 37026 ft 491 kts 101°
2026-05-05 18:34 53.46752 -2.42260 37020 ft 491 kts 101°
2026-05-05 18:34 53.45497 -2.30989 37022 ft 491 kts 101°
2026-05-05 18:35 53.44233 -2.19742 37026 ft 491 kts 102°
2026-05-05 18:35 53.42957 -2.08492 37021 ft 491 kts 102°
2026-05-05 18:36 53.41671 -1.97253 37019 ft 491 kts 102°
2026-05-05 18:36 53.40380 -1.86072 37016 ft 492 kts 102°
2026-05-05 18:37 53.39063 -1.74756 37025 ft 492 kts 102°
2026-05-05 18:37 53.37747 -1.63555 37013 ft 493 kts 102°
2026-05-05 18:38 53.36412 -1.52285 37015 ft 493 kts 102°
2026-05-05 18:38 53.35068 -1.41030 37020 ft 492 kts 102°
2026-05-05 18:39 53.33716 -1.29807 37007 ft 492 kts 102°
2026-05-05 18:39 53.32354 -1.18595 37002 ft 491 kts 103°
2026-05-05 18:40 53.30983 -1.07411 37007 ft 490 kts 102°
2026-05-05 18:40 53.29605 -0.96250 37005 ft 490 kts 103°
2026-05-05 18:41 53.28217 -0.85108 37013 ft 489 kts 103°
2026-05-05 18:41 53.26822 -0.73999 37018 ft 489 kts 103°
2026-05-05 18:42 53.25424 -0.62953 37021 ft 489 kts 103°
2026-05-05 18:42 53.24005 -0.51828 37019 ft 489 kts 103°
2026-05-05 18:43 53.22577 -0.40725 37017 ft 490 kts 104°
2026-05-05 18:43 53.21136 -0.29610 37022 ft 490 kts 104°
2026-05-05 18:44 53.19930 -0.20369 37016 ft 491 kts 104°
2026-05-05 18:44 53.18465 -0.09229 37027 ft 491 kts 104°
2026-05-05 18:45 53.16993 0.01887 36993 ft 492 kts 104°
2026-05-05 18:45 53.15508 0.13010 36992 ft 492 kts 104°
2026-05-05 18:46 53.14017 0.24090 36988 ft 492 kts 104°
2026-05-05 18:46 53.12502 0.35266 36991 ft 492 kts 104°
2026-05-05 18:47 53.10993 0.46316 36990 ft 491 kts 104°
2026-05-05 18:47 53.09468 0.57395 36989 ft 491 kts 105°
2026-05-05 18:48 53.07932 0.68474 36985 ft 491 kts 105°
2026-05-05 18:48 53.06388 0.79530 36986 ft 491 kts 105°
2026-05-05 18:49 53.04834 0.90572 36979 ft 490 kts 105°
2026-05-05 18:49 53.03270 1.01609 36973 ft 490 kts 105°
2026-05-05 18:50 53.01706 1.12570 36984 ft 490 kts 105°
2026-05-05 18:50 53.00124 1.23568 36969 ft 490 kts 105°
2026-05-05 18:51 52.98529 1.34588 36978 ft 490 kts 105°
2026-05-05 18:51 52.96923 1.45595 36973 ft 490 kts 105°
2026-05-05 18:52 52.95309 1.56589 36967 ft 490 kts 106°
2026-05-05 18:52 52.93683 1.67580 36972 ft 490 kts 106°
2026-05-05 18:53 52.92057 1.78497 36970 ft 490 kts 106°
2026-05-05 18:53 52.90413 1.89460 36964 ft 491 kts 106°
2026-05-05 18:54 52.88758 2.00424 36966 ft 491 kts 106°
2026-05-05 18:54 52.87090 2.11392 36959 ft 490 kts 107°
2026-05-05 18:55 52.85417 2.22322 36960 ft 490 kts 107°
2026-05-05 18:55 52.83733 2.33250 36958 ft 490 kts 107°
2026-05-05 18:56 52.82041 2.44159 36953 ft 490 kts 107°
2026-05-05 18:56 52.80337 2.55075 36947 ft 489 kts 107°
2026-05-05 18:57 52.78625 2.65960 36945 ft 488 kts 108°
2026-05-05 18:57 52.76908 2.76814 36965 ft 487 kts 108°
2026-05-05 18:58 52.75186 2.87637 36949 ft 487 kts 108°
2026-05-05 18:58 52.73466 2.98423 36951 ft 486 kts 107°
2026-05-05 18:59 52.72302 3.09374 36948 ft 488 kts 101°
2026-05-05 18:59 52.71322 3.20508 36947 ft 487 kts 101°
2026-05-05 19:00 52.70327 3.31463 36942 ft 486 kts 102°
2026-05-05 19:00 52.69293 3.42455 36936 ft 485 kts 102°
2026-05-05 19:01 52.68243 3.53435 36929 ft 485 kts 102°
2026-05-05 19:01 52.67184 3.64404 36940 ft 484 kts 102°
2026-05-05 19:02 52.66117 3.75355 36942 ft 484 kts 102°
2026-05-05 19:02 52.65042 3.86298 36943 ft 484 kts 102°
2026-05-05 19:03 52.63957 3.97226 36940 ft 484 kts 102°
2026-05-05 19:03 52.62865 4.08116 36923 ft 484 kts 102°
2026-05-05 19:04 52.61761 4.19046 36933 ft 484 kts 102°
2026-05-05 19:04 52.60580 4.29950 36929 ft 484 kts 104°
2026-05-05 19:05 52.59293 4.40830 36925 ft 484 kts 104°
2026-05-05 19:05 52.58003 4.51706 36919 ft 485 kts 104°
2026-05-05 19:06 52.56718 4.62602 36916 ft 485 kts 104°
2026-05-05 19:06 52.55426 4.73496 36913 ft 485 kts 104°
2026-05-05 19:07 52.54127 4.84349 36915 ft 485 kts 104°
2026-05-05 19:07 52.52855 4.95250 36913 ft 485 kts 103°
2026-05-05 19:08 52.51620 5.06158 36910 ft 486 kts 103°
2026-05-05 19:08 52.50376 5.17057 36916 ft 486 kts 103°
2026-05-05 19:09 52.49120 5.27899 36913 ft 486 kts 103°
2026-05-05 19:09 52.47852 5.38723 36912 ft 486 kts 104°
2026-05-05 19:10 52.46578 5.49503 36900 ft 487 kts 104°
2026-05-05 19:10 52.45282 5.60379 36908 ft 487 kts 104°
2026-05-05 19:11 52.43970 5.71305 36908 ft 487 kts 104°
2026-05-05 19:11 52.42648 5.82218 36897 ft 488 kts 104°
2026-05-05 19:12 52.41319 5.93108 36895 ft 488 kts 104°
2026-05-05 19:12 52.39984 6.03950 36882 ft 488 kts 105°
2026-05-05 19:13 52.38625 6.14909 36890 ft 488 kts 105°
2026-05-05 19:13 52.37272 6.25721 36892 ft 488 kts 105°
2026-05-05 19:14 52.35900 6.36606 36884 ft 488 kts 105°
2026-05-05 19:14 52.34516 6.47495 36866 ft 488 kts 105°
2026-05-05 19:15 52.33127 6.58349 36877 ft 487 kts 105°
2026-05-05 19:15 52.31731 6.69167 36875 ft 486 kts 105°
2026-05-05 19:16 52.30323 6.79992 36871 ft 485 kts 105°
2026-05-05 19:16 52.28913 6.90747 36857 ft 483 kts 105°
2026-05-05 19:17 52.28213 6.96069 36673 ft 480 kts 105°
2026-05-05 19:17 52.27507 7.01413 36405 ft 478 kts 106°
2026-05-05 19:17 52.26812 7.06650 36154 ft 476 kts 106°
2026-05-05 19:17 52.26110 7.11918 35952 ft 473 kts 106°
2026-05-05 19:18 52.25414 7.17127 35743 ft 470 kts 106°
2026-05-05 19:18 52.24717 7.22322 35551 ft 467 kts 107°
2026-05-05 19:18 52.24022 7.27484 35354 ft 464 kts 107°
2026-05-05 19:18 52.23329 7.32608 35149 ft 461 kts 107°
2026-05-05 19:19 52.22637 7.37711 34981 ft 458 kts 107°
2026-05-05 19:19 52.21949 7.42764 34919 ft 455 kts 107°
2026-05-05 19:19 52.20565 7.52862 34854 ft 459 kts 107°
2026-05-05 19:20 52.19160 7.63042 34862 ft 461 kts 107°
2026-05-05 19:20 52.17744 7.73245 34865 ft 462 kts 107°
2026-05-05 19:21 52.16320 7.83444 34854 ft 462 kts 107°
2026-05-05 19:21 52.14895 7.93587 34847 ft 461 kts 107°
2026-05-05 19:22 52.13457 8.03741 34849 ft 460 kts 107°
2026-05-05 19:22 52.12009 8.13905 34850 ft 460 kts 108°
2026-05-05 19:23 52.10557 8.24025 34856 ft 459 kts 108°
2026-05-05 19:23 52.09097 8.34137 34846 ft 459 kts 108°
2026-05-05 19:24 52.07610 8.44339 34841 ft 473 kts 108°
2026-05-05 19:24 52.06062 8.54890 34841 ft 481 kts 108°
2026-05-05 19:25 52.04510 8.65455 34834 ft 479 kts 108°
2026-05-05 19:25 52.02964 8.75902 34837 ft 478 kts 108°
2026-05-05 19:26 52.01400 8.86374 34822 ft 477 kts 108°
2026-05-05 19:26 51.99825 8.96850 34637 ft 479 kts 108°
2026-05-05 19:27 51.99020 9.02160 33585 ft 489 kts 108°
2026-05-05 19:27 51.98207 9.07510 32617 ft 488 kts 108°
2026-05-05 19:27 51.97394 9.12861 31653 ft 487 kts 108°
2026-05-05 19:27 51.96580 9.18205 30705 ft 487 kts 108°
2026-05-05 19:28 51.95767 9.23520 29967 ft 484 kts 108°
2026-05-05 19:28 51.94961 9.28784 29216 ft 479 kts 108°
2026-05-05 19:28 51.94170 9.33930 28543 ft 473 kts 108°
2026-05-05 19:28 51.93375 9.39078 27908 ft 468 kts 108°
2026-05-05 19:29 51.92587 9.44160 27272 ft 463 kts 108°
2026-05-05 19:29 51.91805 9.49189 26670 ft 458 kts 108°
2026-05-05 19:29 51.91028 9.54164 26049 ft 454 kts 108°
2026-05-05 19:29 51.90254 9.59107 25463 ft 451 kts 107°
2026-05-05 19:30 51.89483 9.64014 24872 ft 447 kts 107°
2026-05-05 19:30 51.88715 9.68889 24300 ft 444 kts 107°
2026-05-05 19:30 51.87955 9.73709 23721 ft 441 kts 107°
2026-05-05 19:30 51.87451 9.76900 23333 ft 439 kts 107°
2026-05-05 19:31 51.86697 9.81662 22713 ft 434 kts 107°
2026-05-05 19:31 51.86008 9.86362 22516 ft 426 kts 105°
2026-05-05 19:31 51.85369 9.91066 22286 ft 431 kts 105°
2026-05-05 19:31 51.84735 9.95831 22063 ft 436 kts 105°
2026-05-05 19:32 51.84097 10.00611 21816 ft 434 kts 105°
2026-05-05 19:32 51.83456 10.05375 21564 ft 431 kts 105°
2026-05-05 19:32 51.82813 10.10106 21352 ft 428 kts 105°
2026-05-05 19:32 51.82170 10.14783 21113 ft 426 kts 105°
2026-05-05 19:33 51.81525 10.19437 20894 ft 423 kts 105°
2026-05-05 19:33 51.80878 10.24071 20683 ft 422 kts 105°
2026-05-05 19:33 51.80229 10.28709 20437 ft 423 kts 105°
2026-05-05 19:33 51.79578 10.33353 20205 ft 425 kts 105°
2026-05-05 19:34 51.78924 10.38008 20005 ft 425 kts 105°
2026-05-05 19:34 51.78272 10.42639 19768 ft 423 kts 105°
2026-05-05 19:34 51.77619 10.47259 19546 ft 422 kts 105°
2026-05-05 19:35 51.76319 10.56418 19098 ft 419 kts 105°
2026-05-05 19:35 51.75666 10.60995 18883 ft 418 kts 105°
2026-05-05 19:35 51.75012 10.65571 18666 ft 417 kts 105°
2026-05-05 19:35 51.74360 10.70116 18432 ft 415 kts 105°
2026-05-05 19:36 51.73709 10.74642 18200 ft 414 kts 105°
2026-05-05 19:36 51.73055 10.79170 17986 ft 413 kts 105°
2026-05-05 19:36 51.72375 10.83666 17737 ft 411 kts 108°
2026-05-05 19:36 51.71440 10.87994 17510 ft 408 kts 114°
2026-05-05 19:37 51.70384 10.92221 17294 ft 406 kts 114°
2026-05-05 19:37 51.69336 10.96438 17064 ft 405 kts 114°
2026-05-05 19:37 51.68298 11.00654 16860 ft 403 kts 114°
2026-05-05 19:37 51.67271 11.04846 16643 ft 402 kts 113°
2026-05-05 19:38 51.66248 11.09037 16423 ft 401 kts 113°
2026-05-05 19:38 51.65228 11.13223 16213 ft 400 kts 114°
2026-05-05 19:38 51.64212 11.17383 15975 ft 399 kts 114°
2026-05-05 19:38 51.63198 11.21522 15779 ft 397 kts 113°
2026-05-05 19:39 51.62098 11.25578 15570 ft 394 kts 119°
2026-05-05 19:39 51.60733 11.29383 15363 ft 391 kts 126°
2026-05-05 19:39 51.59143 11.32914 15162 ft 388 kts 128°
2026-05-05 19:39 51.57565 11.36379 14947 ft 387 kts 127°
2026-05-05 19:40 51.55998 11.39869 14673 ft 384 kts 127°
2026-05-05 19:40 51.54466 11.43362 14174 ft 382 kts 126°
2026-05-05 19:40 51.52980 11.46880 13677 ft 378 kts 125°
2026-05-05 19:40 51.51522 11.50374 13088 ft 376 kts 126°
2026-05-05 19:41 51.50074 11.53856 12582 ft 372 kts 126°
2026-05-05 19:41 51.48641 11.57294 12035 ft 369 kts 126°
2026-05-05 19:41 51.47213 11.60700 11507 ft 366 kts 125°
2026-05-05 19:41 51.45792 11.64063 11068 ft 361 kts 125°
2026-05-05 19:42 51.44387 11.67361 10672 ft 355 kts 125°
2026-05-05 19:42 51.43008 11.70571 10465 ft 339 kts 125°
2026-05-05 19:42 51.41727 11.73575 10282 ft 314 kts 124°
2026-05-05 19:42 51.40571 11.76412 10102 ft 294 kts 123°
2026-05-05 19:43 51.39498 11.79073 9767 ft 276 kts 123°
2026-05-05 19:43 51.38473 11.81610 9093 ft 269 kts 123°
2026-05-05 19:43 51.37462 11.84095 8414 ft 262 kts 122°
2026-05-05 19:43 51.36777 11.86742 7697 ft 257 kts 98°
2026-05-05 19:44 51.36959 11.89545 6968 ft 257 kts 69°
2026-05-05 19:44 51.37982 11.91864 6164 ft 259 kts 40°
2026-05-05 19:44 51.39602 11.93097 5441 ft 262 kts 11°
2026-05-05 19:44 51.41418 11.93128 4904 ft 260 kts 357°
2026-05-05 19:45 51.43195 11.92802 4350 ft 256 kts 355°
2026-05-05 19:45 51.44957 11.92422 3797 ft 253 kts 355°
2026-05-05 19:45 51.46681 11.91980 3264 ft 250 kts 346°
2026-05-05 19:45 51.48216 11.90576 3071 ft 260 kts 316°
2026-05-05 19:46 51.49135 11.88094 3014 ft 264 kts 286°
2026-05-05 19:46 51.49199 11.85178 2984 ft 260 kts 256°
2026-05-05 19:46 51.48386 11.82694 2981 ft 249 kts 223°
2026-05-05 19:46 51.46938 11.81308 2984 ft 241 kts 189°
2026-05-05 19:47 51.45314 11.81234 3007 ft 231 kts 170°
2026-05-05 19:47 51.43728 11.81670 3001 ft 230 kts 158°
2026-05-05 19:47 51.42321 11.82743 3002 ft 227 kts 139°
2026-05-05 19:47 51.41248 11.84539 3005 ft 222 kts 118°
2026-05-05 19:48 51.40585 11.86755 3011 ft 220 kts 105°
2026-05-05 19:48 51.40211 11.89109 2980 ft 213 kts 98°
2026-05-05 19:48 51.40046 11.91358 2968 ft 193 kts 91°
2026-05-05 19:48 51.39985 11.93403 3023 ft 175 kts 90°
2026-05-05 19:49 51.39999 11.95336 3002 ft 172 kts 85°
2026-05-05 19:49 51.40045 11.96622 3000 ft 171 kts 85°
2026-05-05 19:49 51.40159 11.99154 2997 ft 173 kts 84°
2026-05-05 19:49 51.40250 12.01097 2846 ft 177 kts 84°
2026-05-05 19:50 51.40342 12.03051 2596 ft 174 kts 84°
2026-05-05 19:50 51.40432 12.04966 2367 ft 171 kts 83°
2026-05-05 19:50 51.40522 12.06858 2131 ft 169 kts 84°
2026-05-05 19:50 51.40606 12.08680 1903 ft 157 kts 82°
2026-05-05 19:51 51.40686 12.10378 1709 ft 146 kts 83°
2026-05-05 19:51 51.40761 12.11964 1533 ft 144 kts 82°
2026-05-05 19:51 51.40838 12.13583 1323 ft 148 kts 82°
2026-05-05 19:51 51.40917 12.15258 1120 ft 154 kts 83°
2026-05-05 19:52 51.40996 12.16974 907 ft 153 kts 84°
2026-05-05 19:52 51.41079 12.18686 686 ft 155 kts 84°
2026-05-05 19:52 51.41151 12.20407 488 ft 153 kts 84°
2026-05-05 19:52 51.41235 12.22029 462 ft 133 kts 86°
2026-05-05 19:53 51.41284 12.23077 468 ft 41 kts 86°
2026-05-05 19:53 51.41305 12.23534 474 ft 29 kts 87°
2026-05-05 19:53 51.41313 12.23826 478 ft 26 kts 89°
2026-05-05 19:53 51.41262 12.24105 475 ft 26 kts 114°
2026-05-05 19:54 51.41221 12.24229 470 ft 0 kts 116°
2026-05-05 19:54 51.41219 12.24238 470 ft 1 kts 116°
2026-05-05 19:54 51.41208 12.24272 472 ft 8 kts 116°
2026-05-05 19:54 51.41192 12.24329 475 ft 9 kts 114°
2026-05-05 19:55 51.41141 12.24392 470 ft 16 kts 154°
2026-05-05 19:55 51.41081 12.24463 469 ft 0 kts 140°
2026-05-05 19:55 51.41063 12.24460 470 ft 7 kts 204°
2026-05-05 19:55 51.41060 12.24386 467 ft 11 kts 289°
2026-05-05 19:56 51.41076 12.24262 470 ft 11 kts 272°
2026-05-05 19:56 51.41073 12.24136 469 ft 11 kts 265°
2026-05-05 19:56 51.41067 12.24009 473 ft 11 kts 266°
2026-05-05 19:56 51.41062 12.23882 483 ft 11 kts 266°
2026-05-05 19:57 51.41056 12.23755 475 ft 11 kts 264°
2026-05-05 19:57 51.41051 12.23671 475 ft 11 kts 264°
2026-05-05 19:57 51.41042 12.23503 474 ft 8 kts 265°
2026-05-05 19:57 51.41037 12.23416 471 ft 8 kts 267°
2026-05-05 19:58 51.41035 12.23327 470 ft 8 kts 267°
2026-05-05 19:58 51.41031 12.23239 469 ft 8 kts 259°
2026-05-05 19:58 51.40989 12.23187 473 ft 9 kts 191°
2026-05-05 19:58 51.40921 12.23189 469 ft 10 kts 176°
2026-05-05 19:59 51.40843 12.23197 467 ft 12 kts 176°
2026-05-05 19:59 51.40784 12.23284 469 ft 13 kts 95°
2026-05-05 19:59 51.40789 12.23402 469 ft 0 kts 85°